Tracking 21473 objects as of 18-Sep-2020
HD Live streaming from Space Station
objects crossing your sky now

GORIZONT 31

Track GORIZONT 31 now!
GORIZONT 31 is classified as:


NORAD ID: 23775
Int'l Code: 1996-005A
Perigee: 35,828.8 km
Apogee: 35,968.5 km
Inclination: 14.5 °
Period: 1,441.5 minutes
Semi major axis: 42269 km
RCS: 12.5892 m2 (large)
Launch date: January 25, 1996
Source: Commonwealth of Independent States (former USSR) (CIS)
Launch site: TYURATAM MISSILE AND SPACE COMPLEX (TTMTR)

Telecommunications; telephone and television communications to the Russian republic.
aabbcc
Your satellite tracking list
Your tracking list is empty




NASA's NSSDC Master Catalog

Two Line Element Set (TLE):
1 23775U 96005A   20261.15743956 -.00000346 +00000-0 +00000-0 0  9999
2 23775 014.5021 010.8043 0016516 188.0069 353.5209 00.99898708090088
Source of the keplerian elements: AFSPC